Flight Track Log - Related Links

Times and Time Zones

All times are in EDT time to prevent confusion due to time zone crossing. See the GJS6221 flight status page for this flight to view local times or setup timezone preferences in your user account.

Time Position Orientation Groundspeed Altitude Reporting Facility
EDT Latitude Longitude Course Direction KTS MPH feet Rate Location/Type
Thu 07:17:16 AM 45.4475 -73.7536 173° South 453 521 1,600  Level Boston Center
Thu 07:18:16 AM 45.4053 -73.7939 214° Southwest 313 360 5,100 3,076 Climbing Boston Center
Thu 07:19:15 AM 45.3506 -73.8547 218° Southwest 282 325 7,700 2,794 Climbing Boston Center
Thu 07:20:27 AM 45.2794 -73.8853 197° South 269 310 11,200 3,045 Climbing Boston Center
Thu 07:21:29 AM 45.1731 -73.8828 179° South 291 335 14,500 3,174 Climbing Boston Center
Thu 07:22:00 AM 44.5411 -74.1014 173° South  Level FlightAware Approximate
Thu 07:22:28 AM 45.0794 -73.8833 180° South 311 358 17,600  Level Boston Center
Thu 07:23:27 AM 44.9858 -73.8753 177° South 334 384 20,100 2,359 Climbing Boston Center
Thu 07:24:25 AM 44.8667 -73.8667 177° South 370 426 22,200 1,983 Climbing Montreal Center
Thu 07:25:28 AM 44.7775 -73.8700 182° South 374 430 24,100 1,887 Climbing Boston Center
Thu 07:26:29 AM 44.6692 -73.8675 179° South 387 445 26,100 1,950 Climbing Boston Center
Thu 07:27:28 AM 44.5589 -73.8619 178° South 399 459 28,000 1,714 Climbing Boston Center
Thu 07:28:28 AM 44.4422 -73.8589 179° South 409 471 29,500 1,361 Climbing Boston Center
Thu 07:29:27 AM 44.3233 -73.8561 179° South 419 482 30,700 1,160 Climbing Boston Center
Thu 07:30:27 AM 44.1900 -73.8531 179° South 425 489 31,800 639 Climbing Boston Center
Thu 07:31:29 AM 44.0653 -73.8472 178° South 443 510 32,000 100 Climbing Boston Center
Thu 07:32:27 AM 43.9422 -73.8442 179° South 443 510 32,000  Level Boston Center
Thu 07:33:28 AM 43.8297 -73.8389 178° South 448 516 32,000 -150 Level Boston Center
Thu 07:34:27 AM 43.7092 -73.8331 178° South 443 510 31,700 -504 Descending Boston Center
Thu 07:35:27 AM 43.5861 -73.8331 180° South 443 510 31,000 -689 Descending Boston Center
Thu 07:36:29 AM 43.4631 -73.8275 178° South 438 504 30,300 -1,672 Descending Boston Center
Thu 07:37:29 AM 43.3361 -73.8244 179° South 433 498 27,600 -2,746 Descending Boston Center
Thu 07:38:27 AM 43.2256 -73.8219 179° South 420 483 24,900 -1,916 Descending Boston Center
Thu 07:39:28 AM 43.1153 -73.8167 178° South 401 461 23,800 -1,041 Descending Boston Center
Thu 07:40:28 AM 43.0131 -73.8144 179° South 389 448 22,800 -818 Descending Boston Center
Thu 07:41:40 AM 42.9047 -73.8119 179° South 384 442 22,000 -364 Descending Boston Center
Thu 07:42:40 AM 42.7800 -73.8036 177° South 384 442 22,000 -100 Level Boston Center
Thu 07:43:40 AM 42.6717 -73.7928 176° South 384 442 21,800 -595 Descending Boston Center
Thu 07:44:41 AM 42.5844 -73.7739 171° South 384 442 20,800 -992 Descending Boston Center
Thu 07:45:41 AM 42.4783 -73.7547 172° South 379 436 19,800 -1,017 Descending Boston Center
Thu 07:46:39 AM 42.3744 -73.7272 169° South 379 436 18,800 -814 Descending Boston Center
Thu 07:47:39 AM 42.2600 -73.7025 171° South 379 436 18,200 -393 Descending Boston Center
Thu 07:48:41 AM 42.1683 -73.6894 174° South 379 436 18,000 -98 Descending Boston Center
Thu 07:49:41 AM 42.0558 -73.6872 179° South 373 429 18,000  Level Boston Center
Thu 07:50:41 AM 41.9636 -73.7383 202° Southwest 363 418 18,000 -305 Level Boston Center
Thu 07:51:39 AM 41.8819 -73.7617 192° South 346 398 17,400 -1,109 Descending Boston Center
Thu 07:52:40 AM 41.7881 -73.7906 193° South 329 379 15,800 -1,463 Descending Boston Center
Thu 07:53:42 AM 41.7106 -73.8111 191° South 324 373 14,400 -1,563 Descending Boston Center
Thu 07:54:39 AM 41.6164 -73.8369 192° South 313 360 12,700 -1,636 Descending Boston Center
Thu 07:55:54 AM 41.5000 -73.8667 191° South 298 343 10,800 -1,511 Descending New York TRACON
Thu 07:56:54 AM 41.4333 -73.8667 180° South 299 344 9,300 -1,350 Descending New York TRACON
Thu 07:57:54 AM 41.3500 -73.8167 156° South 295 339 8,100 -678 Descending New York TRACON
Thu 07:58:49 AM 41.3000 -73.7667 143° Southeast 287 330 8,000 -53 Descending New York TRACON
Thu 07:59:48 AM 41.2333 -73.7000 143° Southeast 295 339 8,000 -151 Level New York TRACON
Thu 08:00:48 AM 41.1667 -73.6500 151° Southeast 298 343 7,700 -950 Descending New York TRACON
Thu 08:01:48 AM 41.0833 -73.6167 163° South 277 319 6,100 -1,636 Descending New York TRACON
Thu 08:02:49 AM 41.0167 -73.5833 159° South 271 312 4,400 -1,050 Descending New York TRACON
Thu 08:03:48 AM 40.9500 -73.5667 169° South 272 313 4,000 -211 Descending New York TRACON
Thu 08:04:43 AM 40.8833 -73.6167 210° Southwest 272 313 4,000 -300 Level New York TRACON
Thu 08:05:48 AM 40.8167 -73.6667 210° Southwest 253 291 3,400 -857 Descending New York TRACON
Thu 08:06:49 AM 40.7833 -73.7333 237° Southwest 209 241 2,200 -992 Descending New York TRACON
Thu 08:07:49 AM 40.7667 -73.7833 246° West 161 185 1,400 -807 Descending New York TRACON
Thu 08:08:48 AM 40.7500 -73.8333 246° West 124 143 600 -814 Descending New York TRACON
Thu 08:10:00 AM 40.7667 -73.8667 270° West  Level FlightAware Approximate
Thu 08:17:00 AM 40.7772 -73.8726 270° West  Level Estimated
Thu 08:18:00 AM 40.7772 -73.8726 270° West  Level Estimated
Thu 08:19:00 AM 40.7772 -73.8726 270° West  Level Estimated

Login

Don't have an account? Register now (free) for customized features, flight alerts, and more!